FENGYUN 1C DEB, 31345

Orbit data source: Space-Track

FENGYUN 1C DEB, 31345 is space debris in SSO originally from a launch on Mon, 10 May 1999 UTC launched from the Taiyaun Space Center, China (TSC). Fengyun 1C debris stems from the Chinese weather satellite Fengyun-1C, which was intentionally destroyed by a Chinese anti-satellite missile in 2007. This event dramatically increased the amount of space debris, with thousands of trackable fragments posing hazards to satellites and human spaceflight. The Fengyun 1C debris cloud has become a focal point in discussions about space sustainability and the need for international regulations to prevent the creation of new debris.

Loading next visibility...
Identifier
31345, 1999-025BQZ
Orbit
SSO
Country
Flag of CNCN / PRC
Related business
Manufacturer
Unknown
Mission
Spacecraft
Bus & Motor
Unknown
Mass
Unknown
Launch date (UTC)
1999-05-10 (27 years ago)
Launch vehicle
Unknown
Launch site
Taiyaun Space Center, China (TSC)
Object type
Payload
Rocket body
Debris
Shape & HBR
Unknown shape, 0.1 m
Radar Cross Section
Small (<0.1 m²)

Expand to show TLE details & history
Last TLE update: 1 week ago

TLE from 1 week ago
0 FENGYUN 1C DEB
1 31345U 99025BQZ 26245.81348198  .00001813  00000-0  96124-3 0  9990
2 31345  98.0913 239.3477 0069720  37.7890 322.8151 14.13462792992316
Epoch: 2026-09-02T19:31Z
TLE epoch observation values (Epoch: 2026-09-02T19:31:24.843Z)
Latitude
0.00001°
Longitude
-35.46644°
Altitude
810.457 km
Speed
7.469 km/s
True Right ascension
15h 57m 23s
True Declination
0° 00' 00"
Sunlit
Object was in daylight at epoch
Visualization orbit readout
Latitude
Unknown
Longitude
Unknown
Altitude
Unknown
Speed
Unknown
Apparent Right ascension
Unknown
Apparent Declination
Unknown
Sunlit
N/A
Visualization observer readout
Local Sidereal Time
02:52:48
Azimuth
Unknown
Elevation
Unknown
Doppler factor
Unknown
Orbital elements
Apogee altitude
895.042 km
Perigee altitude
794.327 km
Semi-major axis
7,222.822 km
Eccentricity
0.00697
Inclination
98.0913°
RAAN
239.3477°
Arg. of periapsis
37.789°
True anomaly
322.32886°
Mean anomaly
322.8151°
Eccentric anomaly
322.57232°
Mean motion
3.53576 °/min
Orbital period
101.82 mins
BSTAR
0.00096124
Loading maneuver chart data...
Computing Atmospheric mass density...
Loading historical data...
Loading historical data...
Loading historical data...
Loading historical data...
Loading historical data...
Loading historical data...
Loading historical data...

Documentation

Showing up to 5 results
|